Voltar ao catálogo

LIZZIESAT-3

LS-3

AtivoCiênciaSSO
NORAD 63233·PAYLOAD·🇺🇸 United States

Lançado Mar 15, 2025 de Vandenberg Space Force Base

Loading…

Próximas Passagens (próximas 24 horas)

TLE

AtualizadoSource: Space-Track

Época: Sep 14, 2026, 15:09 UTC

1 63233U 25052Z   26257.63191251  .00004005  00000-0  17602-3 0  9999
2 63233  97.3768 147.8728 0005222 190.3451 169.7679 15.22461909 83410

Acompanhe LIZZIESAT-3 em tempo real com AllMySat

Download on the App Store